CAPE
1007 861 781 1100 24 8 5 44 26 36 29 48 31 110 33 35 0 0 1 186 652 851 1201 1706 2164 1977 2060 2046 2060 2199 2302 2062 2347 2372 2107 2109 2139 2086 2195 2146 2169 2106 1974 2014 1847 1834 1818 1692 1542
805 1022 947 339 29 13 32 42 108 154 80 93 153 192 224 226 175 87 246 716 649 1300 1449 1595 2253 2049 2091 2072 2174 2280 2265 2320 2393 2391 2278 2350 2239 2134 2012 2003 1883 1954 1663 1352 1582 1591 1504 1395 1427
1638 1741 333 142 34 49 45 71 111 66 75 123 102 220 219 319 198 278 514 749 1046 1259 1384 1589 2044 1989 1773 1931 2107 2137 2262 2125 2029 2337 2156 2205 2240 2172 2127 2129 1788 1583 1471 1460 1509 1374 1228 1206 1227
93 129 329 56 29 49 76 68 78 57 84 133 153 228 258 212 289 539 652 866 918 1264 1568 1840 1922 1903 1873 1954 1358 903 1956 2222 2240 2172 2250 2374 2266 2369 1938 1484 1287 1066 1007 986 995 1107 1131 1060 1112
615 270 102 31 52 64 66 40 27 18 5 74 122 185 227 323 575 646 781 759 1104 1478 1565 1476 1800 1917 1299 1255 1699 1367 869 1805 1848 1841 2322 2488 2166 1855 1571 1361 1085 925 1094 1314 1306 1021 1046 1344 1327
53 269 38 40 58 49 35 28 27 27 75 81 110 156 370 476 589 661 716 1037 1333 1370 1518 1497 2025 1517 1222 1338 1995 1907 1025 1175 1590 1578 1885 2046 1934 1710 1432 1191 917 793 902 1273 1234 1140 1158 1242 1381
72 137 48 52 88 54 32 38 43 14 27 16 99 159 389 469 555 618 803 1120 1269 1424 1571 1539 1173 992 1657 1994 1983 2118 1714 1161 1288 1485 1582 1658 1580 1443 1299 1195 997 854 777 836 939 938 911 964 1114
153 246 45 55 109 102 73 86 42 39 22 40 125 89 203 411 562 617 803 1074 1297 1380 1363 1284 1110 1145 1502 1465 1249 1259 1360 1246 1287 1442 1501 1487 1464 1492 1371 1385 1408 1197 971 764 872 1007 1681 1556 1503
138 243 38 69 102 83 102 82 45 67 41 141 180 124 277 481 507 490 706 943 996 1124 1129 1260 1245 1037 1338 1356 1222 1566 1421 1437 1456 1436 1568 1662 971 1001 1157 1377 1500 1591 1401 866 1093 1763 2133 910 1237
283 227 22 88 81 65 102 81 63 50 138 145 262 345 466 441 373 402 496 568 636 723 818 1068 1134 867 932 1208 1325 1453 1705 1560 1516 1506 1657 1481 1478 1430 1453 1321 1949 2309 1961 2200 2357 2697 1902 563 439
597 384 146 65 67 47 53 70 56 67 114 97 237 372 384 358 272 250 332 358 369 406 648 887 782 569 701 737 813 973 1065 1154 1160 1126 1080 1183 1291 1419 1440 1676 1731 1938 2694 1673 1141 2931 1423 397 528
139 218 167 75 43 30 73 52 57 73 75 99 238 323 311 336 188 206 237 267 170 305 464 665 428 492 465 578 721 850 1006 890 701 907 1058 978 927 878 830 903 1017 1086 1147 1082 1131 1689 1213 499 200
294 347 92 76 49 58 54 88 74 77 114 151 215 257 246 277 181 186 251 187 170 222 374 483 333 268 274 623 554 772 894 1035 518 502 593 712 727 635 1062 1102 1036 926 650 618 1047 1205 380 161 276
257 195 126 100 60 34 64 94 96 110 139 160 183 205 204 233 175 176 225 208 261 171 209 302 262 172 177 442 491 271 547 849 294 269 274 488 597 824 578 934 976 782 707 701 790 303 216 151 161
126 65 58 68 67 39 58 117 124 117 138 155 151 155 167 175 138 172 205 204 265 141 106 181 168 191 242 437 499 530 338 452 353 280 254 102 423 772 762 650 525 500 629 623 408 295 231 256 415
45 23 35 62 47 40 27 60 101 84 111 111 110 100 105 112 128 186 169 184 243 167 84 172 141 246 486 398 402 443 410 304 165 391 598 258 296 630 520 397 586 465 730 823 844 665 509 404 409
35 21 18 98 149 30 81 1 3 0 44 82 76 65 77 105 124 180 210 195 199 264 158 237 292 326 339 219 228 338 573 806 747 267 360 777 525 855 331 212 703 594 711 750 808 705 554 564 492
40 11 30 16 136 29 40 0 0 0 5 0 16 53 51 70 102 131 136 178 244 256 297 36 123 322 298 115 291 818 619 308 601 448 532 883 830 663 361 685 886 649 766 818 694 797 777 807 688
70 79 181 179 301 54 50 32 23 3 0 0 0 0 0 0 12 48 188 147 173 276 278 107 37 598 269 387 640 779 535 678 627 699 634 725 862 719 561 777 1036 996 831 753 692 786 815 951 748
90 190 184 242 353 245 82 72 39 15 17 0 0 0 0 0 0 3 12 105 181 234 237 80 39 454 438 294 651 706 638 716 537 684 623 674 733 689 877 890 982 1016 1171 1085 864 1070 1042 1154 1106
83 165 145 104 457 307 241 134 92 56 36 18 3 0 0 0 5 13 11 115 164 211 253 204 324 414 392 261 590 726 735 831 707 622 631 516 413 416 486 504 518 460 766 793 793 985 990 1022 967
50 87 177 351 53 53 226 128 41 31 33 58 34 10 0 5 17 24 33 68 180 225 287 327 420 431 265 319 556 699 757 634 642 522 418 356 667 386 329 360 376 291 347 326 419 596 618 766 770
102 88 342 274 92 49 82 177 76 46 34 36 92 59 15 20 67 73 64 69 169 332 321 354 221 244 370 233 342 587 790 592 488 514 396 309 396 404 294 233 175 128 72 61 123 212 263 217 223
286 414 420 291 174 111 113 139 94 87 73 61 44 86 53 34 71 123 152 191 215 287 408 355 291 315 392 399 480 517 596 626 508 336 224 179 132 94 89 94 61 55 35 34 7 23 51 42 19
406 384 198 170 273 210 34 56 117 51 85 93 91 101 74 68 104 190 241 311 371 377 465 470 430 506 402 415 549 719 737 589 456 248 196 158 187 173 134 66 54 14 19 53 74 36 39 13 0
399 181 17 1 14 0 6 18 51 123 381 550 208 126 145 136 134 171 223 364 543 619 544 549 564 583 444 556 585 606 700 660 539 338 192 120 136 104 71 7 0 0 0 0 0 0 1 2 0
266 244 21 0 0 0 0 0 4 201 286 361 424 456 505 250 227 235 223 379 502 580 693 542 548 538 609 718 633 573 645 565 340 164 126 130 109 104 48 0 0 0 0 0 0 0 0 0 0
0 0 0 0 0 0 0 0 48 297 307 577 385 351 348 395 397 355 354 475 523 521 570 672 671 601 567 477 447 330 447 250 102 102 80 62 95 94 48 37 8 0 0 0 0 0 0 0 0
0 0 0 0 0 0 0 0 740 833 606 457 375 453 718 504 523 481 520 560 561 477 499 465 421 346 183 295 97 24 111 62 100 76 67 80 32 84 34 37 67 36 21 0 4 0 0 0 0
0 0 0 0 0 0 0 0 476 500 808 637 894 990 669 757 787 677 589 540 353 215 188 114 11 0 87 13 92 73 178 190 138 119 139 171 101 0 5 19 37 0 0 0 0 0 0 0 0
CIN
-113 -140 -156 -98 -72 -25 -34 -7 -58 -27 -43 -52 -41 -39 -83 -113 -26 -0 -17 -77 -41 -30 -7 -2 -1 -0 -0 -0 -0 -0 -0 -0 -0 -0 -0 -0 -0 -0 -0 -0 -0 -0 -0 -0 -0 -0 -0 -0 -0
-134 -105 -130 -118 -48 -44 -20 -26 -51 -68 -112 -127 -57 -74 -65 -69 -89 -105 -60 -25 -54 -14 -3 -3 -0 -0 -0 -2 -1 -0 -0 -0 -0 -0 -0 -0 -0 -0 -0 -0 -0 -0 -0 -0 -0 -0 -1 -1 -1
-38 -56 -108 -78 -40 -49 -34 -70 -96 -68 -124 -70 -105 -76 -84 -33 -85 -82 -72 -59 -38 -15 -7 -1 -1 -1 -0 -1 -0 -0 -0 -0 -0 -0 -0 -0 -0 -0 -0 -0 -0 -0 -1 -3 -2 -3 -5 -6 -6
-271 -101 -124 -60 -47 -66 -53 -81 -146 -56 -57 -72 -52 -95 -81 -78 -78 -83 -74 -57 -47 -6 -3 -3 -2 -1 -0 -0 -5 -20 -0 -0 -0 -0 -0 -0 -0 -0 -0 -0 -2 -31 -29 -21 -20 -14 -11 -12 -13
-172 -158 -79 -39 -44 -44 -79 -52 -29 -13 -105 -152 -174 -107 -101 -56 -69 -69 -61 -66 -32 -1 -2 -5 -1 -0 -4 -4 -0 -3 -42 -0 -0 -0 -0 -0 -0 -0 -0 -1 -23 -57 -49 -22 -18 -35 -41 -20 -17
-31 -131 -49 -35 -42 -30 -27 -36 -18 -183 -173 -185 -163 -140 -47 -27 -58 -55 -63 -35 -13 -15 -3 -3 -1 -0 -4 -3 -1 -0 -31 -21 -0 -0 -0 -0 -0 -0 -1 -17 -50 -82 -81 -45 -50 -66 -53 -44 -42
-30 -121 -58 -55 -47 -40 -36 -32 -23 -172 -210 -214 -192 -142 -51 -20 -45 -56 -42 -29 -15 -9 -2 -1 -2 -9 -0 -1 -2 -0 -0 -16 -14 -5 -1 -0 -5 -14 -21 -45 -71 -92 -97 -93 -91 -95 -88 -102 -91
-124 -132 -64 -57 -63 -43 -32 -43 -57 -167 -201 -193 -186 -201 -141 -54 -25 -35 -25 -7 -2 -1 -1 -2 -3 -1 -2 -1 -0 -10 -11 -25 -30 -28 -26 -30 -53 -43 -64 -65 -64 -68 -86 -114 -112 -105 -65 -85 -95
-157 -74 -37 -59 -58 -57 -24 -12 -40 -177 -210 -140 -165 -226 -140 -48 -24 -35 -5 -0 -0 -0 -0 -1 -3 -11 -2 -1 -7 -8 -21 -26 -36 -47 -45 -72 -121 -128 -91 -111 -85 -73 -79 -116 -108 -77 -69 -188 -172
-53 -50 -20 -59 -40 -42 -35 -16 -9 -175 -157 -188 -177 -116 -71 -56 -58 -70 -56 -50 -35 -25 -23 -19 -22 -34 -30 -14 -27 -30 -24 -36 -56 -69 -78 -132 -71 -75 -100 -112 -76 -64 -77 -70 -64 -46 -101 -269 -291
-124 -81 -62 -125 -63 -63 -10 -12 -21 -181 -168 -211 -217 -137 -92 -72 -75 -97 -97 -117 -111 -79 -51 -46 -60 -80 -10 -16 -32 -43 -28 -56 -94 -95 -87 -52 -72 -60 -99 -109 -114 -161 -89 -109 -99 -59 -152 -347 -344
-142 -116 -84 -119 -61 -16 -25 -28 -32 -43 -131 -221 -176 -157 -144 -100 -136 -130 -119 -124 -153 -117 -81 -65 -101 -104 -21 -41 -35 -40 -54 -104 -31 -80 -22 -48 -14 -44 -84 -41 -70 -253 -174 -140 -226 -116 -143 -204 -446
-119 -119 -72 -81 -44 -23 -42 -19 -24 -45 -186 -184 -161 -129 -137 -98 -116 -103 -97 -121 -132 -113 -106 -101 -124 -142 -155 -101 -36 -40 -49 -63 -90 -20 -20 -27 -80 -27 -78 -84 -138 -174 -66 -60 -122 -124 -199 -480 -398
-168 -140 -45 -45 -37 -18 -11 -26 -36 -57 -176 -165 -182 -133 -114 -85 -87 -75 -78 -88 -102 -123 -116 -123 -146 -178 -165 -107 -101 -41 -47 -49 -95 -22 -28 -17 -38 -82 -57 -79 -111 -107 -102 -160 -158 -78 -459 -463 -423
-182 -25 -20 -46 -56 -21 -22 -24 -23 -72 -159 -172 -161 -141 -107 -73 -78 -77 -95 -82 -82 -146 -123 -112 -124 -149 -130 -77 -65 -68 -36 -45 -54 -61 -155 -29 -40 -30 -79 -20 -262 -267 -79 -66 -55 -79 -67 -66 -66
-102 -30 -40 -62 -38 -38 -20 -11 -20 -54 -145 -151 -140 -140 -113 -97 -97 -76 -77 -83 -63 -105 -117 -72 -79 -73 -49 -50 -51 -50 -57 -44 -41 -22 -36 -112 -27 -59 -22 -107 -51 -76 -46 -38 -31 -46 -61 -101 -117
-76 -44 -19 -48 -73 -48 -24 -2 -16 -0 -30 -117 -113 -118 -117 -98 -86 -77 -74 -69 -67 -69 -79 -43 -40 -33 -31 -38 -36 -38 -28 -34 -68 -13 -16 -65 -62 -25 -42 -42 -45 -27 -62 -53 -38 -52 -91 -103 -84
-49 -68 -120 -15 -122 -128 -56 -0 -0 -0 -35 -0 -31 -87 -111 -111 -111 -96 -89 -76 -61 -59 -63 -77 -37 -72 -54 -102 -122 -42 -41 -57 -81 -31 -14 -58 -50 -31 -38 -41 -47 -17 -52 -49 -49 -139 -41 -41 -92
-84 -83 -108 -125 -128 -160 -166 -115 -93 -23 -0 -0 -0 -0 -0 -0 -9 -58 -46 -34 -67 -44 -47 -62 -27 -51 -52 -75 -69 -33 -21 -43 -31 -42 -19 -18 -40 -30 -62 -67 -43 -19 -35 -27 -27 -28 -16 -15 -18
-55 -86 -122 -159 -115 -145 -118 -76 -34 -118 -88 -0 -0 -0 -0 -0 -68 -110 -80 -117 -74 -50 -48 -24 -37 -57 -41 -18 -50 -17 -51 -42 -20 -38 -70 -54 -31 -70 -62 -40 -37 -50 -46 -19 -20 -38 -50 -8 -10
-108 -104 -85 -100 -162 -156 -113 -105 -100 -66 -162 -134 -85 -0 -7 -0 -178 -165 -121 -161 -112 -53 -23 -17 -30 -30 -24 -86 -29 -51 -21 -33 -22 -46 -43 -51 -58 -54 -25 -39 -45 -47 -69 -25 -77 -100 -48 -68 -27
-147 -141 -127 -134 -21 -91 -108 -88 -82 -106 -227 -178 -153 -168 -87 -203 -164 -181 -145 -201 -156 -111 -51 -18 -45 -32 -27 -67 -27 -41 -24 -19 -23 -20 -50 -55 -113 -106 -71 -44 -44 -56 -98 -29 -55 -28 -33 -27 -24
-117 -52 -128 -102 -22 -56 -120 -64 -97 -125 -232 -242 -203 -179 -227 -151 -201 -163 -250 -100 -94 -162 -105 -30 -1 -38 -30 -61 -45 -32 -19 -30 -60 -38 -40 -14 -121 -103 -71 -58 -37 -47 -62 -83 -25 -32 -23 -25 -40
-156 -126 -109 -85 -65 -59 -56 -60 -98 -110 -89 -72 -160 -180 -183 -118 -264 -167 -186 -95 -85 -193 -125 -94 -25 -14 -10 -31 -64 -42 -47 -35 -43 -51 -48 -97 -47 -57 -36 -45 -80 -37 -46 -43 -67 -95 -68 -51 -32
-121 -72 -64 -46 -25 -54 -66 -181 -127 -224 -210 -212 -102 -101 -91 -99 -181 -197 -125 -209 -173 -105 -170 -118 -69 -25 -19 -67 -74 -45 -33 -24 -44 -53 -35 -27 -37 -40 -57 -57 -67 -34 -65 -56 -56 -37 -32 -23 -0
-133 -50 -55 -4 -55 -7 -89 -159 -206 -481 -458 -486 -454 -124 -69 -84 -24 -120 -193 -188 -165 -107 -174 -121 -81 -48 -31 -69 -39 -44 -24 -26 -25 -32 -47 -33 -30 -26 -16 -10 -0 -0 -0 -0 -0 -0 -3 -1 -2
-107 -84 -37 -1 -0 -0 -0 -0 -28 -404 -453 -497 -520 -548 -504 -486 -402 -49 -197 -196 -138 -200 -218 -88 -58 -39 -84 -40 -23 -32 -22 -19 -26 -26 -23 -28 -30 -16 -12 -0 -0 -0 -0 -0 -0 -0 -0 -0 -0
-0 -6 -0 -0 -0 -0 -0 -0 -90 -199 -97 -395 -435 -413 -435 -152 -111 -65 -268 -213 -160 -125 -127 -109 -90 -25 -32 -58 -29 -8 -3 -14 -23 -23 -35 -34 -27 -17 -15 -11 -21 -0 -0 -0 -0 -3 -0 -0 -0
-0 -0 -0 -0 -0 -0 -0 -0 -248 -247 -121 -255 -285 -320 -316 -321 -96 -140 -232 -187 -130 -94 -55 -44 -32 -1 -57 -0 -0 -10 -2 -37 -37 -38 -31 -12 -44 -10 -21 -10 -0 -2 -10 -0 -4 -0 -0 -0 -0
-0 -0 -0 -0 -0 -0 -0 -0 -377 -357 -144 -124 -228 -187 -220 -166 -130 -116 -110 -93 -89 -49 -6 -5 -111 -0 -3 -4 -0 -7 -3 -11 -27 -9 -2 -0 -0 -2 -66 -16 -3 -0 -0 -0 -0 -0 -0 -0 -0
Wind_Speed
15 13 11 12 nan nan nan nan nan nan nan nan nan 9 nan nan nan nan nan 11 8 7 5 7 6 5 5 5 7 5 5 3 5 5 4 4 3 4 4 3 1 2 1 4 7 10 12 17 17
14 13 13 9 nan nan nan nan 5 11 nan nan 7 7 7 11 11 nan 12 11 7 5 5 6 5 6 7 8 8 8 6 4 3 2 2 1 2 3 3 3 2 0 4 6 10 13 17 19 18
18 22 16 14 nan nan nan nan 9 nan nan 7 4 11 7 10 8 11 11 8 6 4 6 8 7 7 8 7 8 6 6 5 4 3 2 0 2 2 3 2 2 4 7 11 14 16 19 20 20
nan 14 17 nan nan nan nan nan nan nan nan 7 2 3 5 5 11 11 10 7 4 5 7 5 6 6 6 5 5 4 4 5 6 5 2 1 2 2 3 4 5 7 11 15 15 17 21 22 22
15 12 14 nan nan nan nan nan nan nan nan nan 8 4 7 9 5 10 8 8 8 6 6 5 8 4 6 9 9 7 7 6 5 3 2 3 2 3 5 6 8 9 12 14 14 17 22 24 23
nan 16 nan nan nan nan nan nan nan nan nan nan 5 4 10 9 8 10 8 7 7 8 4 5 2 4 9 11 11 9 11 11 9 6 5 4 4 7 8 8 10 12 12 15 14 17 20 22 22
nan 20 nan nan nan nan nan nan nan nan nan nan nan 7 9 9 9 7 7 6 5 4 4 2 2 6 11 12 3 10 14 14 12 10 9 9 10 9 10 12 12 15 15 15 15 18 19 22 24
15 15 nan nan 9 9 nan nan nan nan nan nan 7 nan 9 9 9 7 4 3 5 5 4 4 2 4 5 7 8 10 10 11 13 13 14 15 13 11 14 12 16 17 17 16 15 17 17 21 24
14 14 nan nan 8 nan 6 nan nan nan nan 10 4 9 5 10 9 8 4 2 5 6 6 3 7 5 6 8 10 9 9 11 14 13 14 14 15 17 15 16 19 21 18 19 18 17 15 16 20
13 15 nan nan nan nan 7 nan nan nan 8 8 7 10 10 10 10 11 10 10 8 8 8 9 10 7 7 12 10 10 11 13 17 16 16 16 18 18 18 17 19 19 20 21 20 18 12 12 15
13 17 18 nan nan nan nan nan nan nan 7 nan 18 13 9 8 8 10 11 12 13 10 12 13 10 8 9 14 10 9 12 13 15 17 17 17 17 18 16 15 14 16 15 15 17 14 10 12 12
15 17 18 nan nan nan nan nan nan nan nan nan 10 15 12 11 8 10 11 10 9 10 13 15 12 12 11 12 12 11 11 12 13 12 10 11 13 14 11 11 12 11 11 10 7 12 14 11 9
15 21 nan nan nan nan nan nan nan nan 6 7 9 12 11 9 6 6 5 6 7 10 10 12 12 13 11 11 13 12 11 10 11 13 9 9 9 10 12 8 9 9 5 5 9 7 9 8 4
19 16 17 12 nan nan nan nan nan 2 6 9 11 11 9 11 11 6 6 7 5 7 11 11 12 12 9 10 12 12 11 12 9 7 8 8 6 5 6 6 5 6 2 1 3 4 7 7 6
17 nan nan nan nan nan nan 7 3 8 8 10 9 8 7 12 13 14 13 8 6 5 7 11 10 9 9 7 9 9 9 8 9 6 5 7 6 7 4 8 7 4 5 6 5 4 3 4 4
nan nan nan nan nan nan nan nan 6 nan 8 8 6 5 6 12 16 16 16 10 7 3 nan 8 8 7 8 8 7 8 7 6 5 2 2 2 3 4 3 2 4 3 9 10 9 8 6 5 5
nan nan nan nan 5 nan nan nan nan nan nan nan nan nan nan 4 12 16 16 13 8 5 5 7 9 9 8 7 3 3 4 5 3 1 2 3 4 4 2 1 1 2 6 5 5 6 7 8 9
nan nan nan nan 13 nan nan nan nan nan nan nan nan nan nan nan 17 14 14 12 7 4 2 nan 7 6 4 6 5 3 0 2 3 1 3 5 4 6 4 3 4 5 7 3 3 4 5 7 7
nan nan 8 6 6 nan nan nan nan nan nan nan nan nan nan nan nan nan 9 8 4 2 2 2 nan 3 1 4 6 4 4 6 9 10 9 6 7 7 7 7 7 8 9 8 7 5 5 6 9
nan 17 12 11 8 9 nan nan nan nan nan nan nan nan nan nan nan nan nan 3 4 5 3 nan nan 4 4 7 8 9 9 11 9 13 14 10 13 14 13 13 15 13 10 10 10 9 8 8 8
nan 4 7 9 9 8 15 16 nan nan nan nan nan nan nan nan nan nan nan 5 5 4 6 5 4 5 7 8 10 13 14 14 13 12 12 11 14 15 16 16 17 18 18 12 11 13 16 13 13
nan nan 9 5 nan nan 12 11 nan nan nan nan nan nan nan nan nan nan nan nan 7 6 5 5 6 7 7 10 9 9 12 15 13 15 18 19 17 19 20 20 19 20 19 17 17 21 19 22 23
8 nan 15 14 nan nan nan 11 nan nan nan nan nan nan nan nan nan nan nan nan 8 7 7 6 9 10 10 11 11 15 14 18 21 21 21 19 21 19 20 21 21 22 nan nan 21 22 25 27 27
27 29 22 18 15 10 7 14 nan nan nan nan nan nan nan nan nan 11 16 11 10 15 16 15 15 16 17 19 18 16 18 20 22 22 21 19 20 nan nan nan nan nan nan nan nan nan nan nan nan
26 26 22 21 20 7 nan nan 3 nan nan nan nan 16 nan nan 19 20 21 22 19 23 24 25 23 22 24 22 22 18 19 23 23 23 24 20 18 19 22 nan nan nan nan nan nan nan nan nan nan
25 28 nan nan nan nan nan nan nan 19 18 16 9 17 19 19 18 19 22 24 23 27 30 31 32 33 33 31 30 32 35 29 30 27 28 23 27 26 nan nan nan nan nan nan nan nan nan nan nan
23 26 nan nan nan nan nan nan nan 24 27 28 28 29 29 35 31 32 30 27 28 32 39 37 42 36 37 33 33 45 42 37 33 37 37 32 32 34 nan nan nan nan nan nan nan nan nan nan nan
nan nan nan nan nan nan nan nan nan 22 28 30 34 33 34 34 33 37 38 39 41 42 42 42 47 34 37 37 36 36 37 35 32 33 nan nan nan nan nan nan nan nan nan nan nan nan nan nan nan
nan nan nan nan nan nan nan nan 30 28 27 31 34 35 36 38 40 42 42 47 50 48 48 49 45 39 54 44 nan nan 24 nan 33 nan nan nan nan nan nan nan nan nan nan nan nan nan nan nan nan
nan nan nan nan nan nan nan nan 32 38 36 35 34 36 34 36 39 42 42 46 46 51 47 44 nan nan nan nan nan nan 35 29 36 33 39 41 41 nan nan nan nan nan nan nan nan nan nan nan nan
Wind_Direction
120 116 111 116 nan nan nan nan nan nan nan nan nan 98 nan nan nan nan nan 57 33 35 47 72 80 84 73 36 11 347 330 313 267 267 254 249 241 215 194 191 167 175 162 104 105 92 76 68 68
132 132 120 118 nan nan nan nan 108 107 nan nan 132 113 138 116 119 nan 81 59 40 44 75 82 75 53 41 26 359 351 351 317 302 293 290 238 197 168 169 185 132 255 93 97 91 76 68 66 66
133 131 122 115 nan nan nan nan 135 nan nan 135 113 137 112 104 85 76 58 34 26 45 78 81 59 32 29 23 344 3 350 340 329 287 271 101 172 154 121 121 97 85 97 96 82 87 81 79 78
nan 140 140 nan nan nan nan nan nan nan nan 146 291 133 101 77 97 64 31 15 16 51 69 59 61 21 5 348 6 36 18 355 332 325 340 42 141 126 116 81 68 84 100 98 97 94 87 83 78
136 135 151 nan nan nan nan nan nan nan nan nan 117 106 118 111 13 28 22 22 2 30 49 61 50 338 354 9 22 21 48 41 22 21 91 154 136 103 80 69 67 98 110 108 91 79 73 71 69
nan 122 nan nan nan nan nan nan nan nan nan nan 166 113 98 23 357 26 15 17 13 7 11 52 334 358 10 12 29 27 43 37 34 52 74 82 76 71 68 64 70 89 95 87 82 72 73 71 66
nan 135 nan nan nan nan nan nan nan nan nan nan nan 135 74 41 9 6 8 9 1 5 355 329 114 38 25 4 11 42 46 43 44 51 57 58 60 65 63 60 78 99 108 102 90 76 73 72 68
129 136 nan nan 116 152 nan nan nan nan nan nan 25 nan 54 53 350 334 16 349 343 355 353 325 98 82 38 54 39 58 58 61 59 53 52 56 56 53 64 68 85 92 93 86 80 80 78 80 73
117 107 nan nan 69 nan 202 nan nan nan nan 108 98 341 358 342 330 337 8 28 6 7 22 68 110 71 57 80 78 73 61 64 69 68 58 61 68 65 57 62 73 80 86 89 81 77 80 89 85
130 121 nan nan nan nan 140 nan nan nan 142 189 214 271 315 338 353 356 19 29 30 48 79 92 99 67 76 92 85 91 92 94 97 95 82 78 75 74 76 71 74 75 81 80 83 77 77 92 95
130 118 106 nan nan nan nan nan nan nan 140 nan 332 324 334 354 17 14 24 56 66 67 94 82 76 80 78 94 87 99 99 97 106 104 99 101 97 93 88 78 87 85 78 74 81 81 76 78 97
137 105 114 nan nan nan nan nan nan nan nan nan 339 335 335 355 24 33 34 70 74 64 73 80 76 65 76 107 98 91 92 99 105 106 105 107 103 105 97 93 71 60 74 70 87 69 61 54 85
138 137 nan nan nan nan nan nan nan nan 285 311 331 344 352 1 14 63 55 86 100 83 67 72 74 72 79 94 99 96 92 98 104 110 102 99 109 110 112 103 75 71 72 45 41 42 51 59 95
149 141 150 164 nan nan nan nan nan 175 293 322 342 4 10 15 21 33 45 86 81 96 85 70 63 71 74 86 100 99 92 98 104 94 78 61 68 74 110 134 106 107 140 81 66 33 40 6 20
145 nan nan nan nan nan nan 174 210 314 321 334 357 8 11 32 29 32 31 70 86 121 88 75 80 82 83 79 80 89 92 103 109 70 95 93 98 93 33 18 38 18 325 316 329 356 12 7 348
nan nan nan nan nan nan nan nan 198 nan 331 354 4 35 15 32 37 32 34 66 84 106 nan 100 100 93 95 90 85 104 106 121 116 70 91 92 94 104 128 77 56 7 323 319 327 338 325 306 268
nan nan nan nan 97 nan nan nan nan nan nan nan nan nan nan 53 62 47 40 45 63 60 33 74 96 102 96 88 80 78 121 127 101 271 315 342 338 306 307 314 39 294 278 294 326 321 305 296 306
nan nan nan nan 89 nan nan nan nan nan nan nan nan nan nan nan 48 52 40 47 56 64 82 nan 108 92 88 135 153 178 175 74 144 238 305 310 296 293 306 301 308 309 301 318 278 260 281 301 290
nan nan 100 126 143 nan nan nan nan nan nan nan nan nan nan nan nan nan 38 33 52 87 149 131 nan 81 280 290 296 264 247 238 235 219 227 277 288 299 334 332 305 304 317 334 354 326 302 275 282
nan 234 101 97 114 156 nan nan nan nan nan nan nan nan nan nan nan nan nan 329 4 4 30 nan nan 296 280 249 257 266 273 269 259 263 255 238 249 248 274 282 285 281 291 295 298 295 290 291 291
nan 150 76 133 149 175 159 127 nan nan nan nan nan nan nan nan nan nan nan 326 303 331 347 320 292 300 277 277 250 248 252 251 267 273 264 255 250 268 274 270 278 272 261 273 280 296 285 295 289
nan nan 257 248 nan nan 169 143 nan nan nan nan nan nan nan nan nan nan nan nan 339 348 307 296 273 259 256 276 271 278 278 276 266 260 267 265 247 270 278 279 283 284 293 279 275 272 285 288 292
243 nan 274 262 nan nan nan 225 nan nan nan nan nan nan nan nan nan nan nan nan 340 299 299 275 264 255 255 262 266 265 272 261 254 256 270 280 246 248 266 281 282 281 nan nan 291 289 279 275 293
281 263 252 259 241 187 278 281 nan nan nan nan nan nan nan nan nan 337 325 301 296 282 284 275 268 256 256 262 266 278 269 270 256 252 265 263 246 nan nan nan nan nan nan nan nan nan nan nan nan
252 263 267 260 261 250 nan nan 292 nan nan nan nan 1 nan nan 327 324 319 312 288 287 280 274 270 258 256 261 269 267 268 260 251 254 267 252 241 258 262 nan nan nan nan nan nan nan nan nan nan
277 276 nan nan nan nan nan nan nan 253 225 229 253 314 309 311 307 307 312 302 296 301 280 273 275 262 257 258 256 252 251 239 238 245 248 257 261 265 nan nan nan nan nan nan nan nan nan nan nan
271 264 nan nan nan nan nan nan nan 264 239 233 245 258 263 267 259 255 257 259 260 270 271 276 265 262 266 261 261 258 242 231 236 237 242 248 257 262 nan nan nan nan nan nan nan nan nan nan nan
nan nan nan nan nan nan nan nan nan 264 259 255 253 252 256 264 263 260 261 259 258 253 257 256 263 278 256 247 251 251 249 245 245 245 nan nan nan nan nan nan nan nan nan nan nan nan nan nan nan
nan nan nan nan nan nan nan nan 280 283 283 272 264 256 258 268 268 269 267 264 262 259 255 258 255 257 250 245 nan nan 237 nan 265 nan nan nan nan nan nan nan nan nan nan nan nan nan nan nan nan
nan nan nan nan nan nan nan nan 273 284 285 281 274 273 272 272 269 270 271 269 268 262 242 245 nan nan nan nan nan nan 310 304 301 297 291 293 296 nan nan nan nan nan nan nan nan nan nan nan nan